Location: Northwest Suburban Astronomers
(42.1100°N, 88.0300°W)
Time: 19:12:23
(UTC-05:00)

Daily predictions for brighter satellites

Satellite Brightness Start Highest point End
(mag) Time Altitude Azimuth Time Altitude Azimuth Time Altitude Azimuth
NOSS 3-4 (A) 4.0 19:49:33 10° NW 19:56:35 80° WSW 20:04:03 10° SSE
NOSS 3-4 (C) 4.0 19:49:40 10° NW 19:56:44 81° WSW 20:04:10 10° SSE
Cosmos 1536 4.2 19:58:15 10° SSW 20:02:05 45° WNW 20:05:59 10° N
Cosmos 1461 2.9 19:58:01 10° NW 20:02:06 78° WSW 20:06:01 10° SSE
Cosmos 1821 Rocket 4.2 20:03:21 10° S 20:09:27 78° W 20:15:34 10° N
Cosmos 1605 Rocket 4.0 20:06:23 10° S 20:12:38 65° E 20:18:49 10° NNE
CZ-4B DEB 2.9 20:10:18 10° SSE 20:13:34 85° WSW 20:16:53 10° NNW
Cosmos 1743 4.5 20:13:07 10° ESE 20:15:20 15° E 20:17:37 10° NE
Tiangong 1 1.0 20:12:58 10° W 20:16:05 81° N 20:18:49 13° E
RESURS DK-1 3.6 20:13:05 10° N 20:16:37 26° NE 20:19:37 13° ESE
Spot 2 Rocket 4.5 20:11:42 10° S 20:16:37 50° W 20:21:35 10° NNW
NOSS 7 (H) 4.3 20:14:16 10° SW 20:17:35 90° WSW 20:21:03 10° NE
Cosmos 1697 Rocket 3.1 20:13:24 10° S 20:18:35 38° ESE 20:23:46 10° NE
Cosmos 2208 Rocket 4.5 20:14:52 10° SSW 20:20:09 69° WNW 20:25:35 10° NNE
H-2A R/B 3.8 20:20:45 11° E 20:22:42 15° ENE 20:25:05 10° NNE
Iridium 4 Rocket 3.6 20:18:33 10° N 20:23:23 46° E 20:27:47 10° SSE
Cosmos 1626 Rocket 3.6 20:20:20 10° N 20:24:42 63° E 20:29:01 10° SSE
BREEZE-M DEB (TANK) 4.1 20:20:54 10° SW 20:24:49 72° SE 20:38:46 10° ENE
Cosmos 2298 Rocket 4.2 20:21:24 10° NNW 20:26:39 57° ENE 20:31:50 10° SE
Envisat 4.0 20:23:26 13° ESE 20:27:10 28° ENE 20:31:28 10° N
Cosmos 1937 Rocket 4.1 20:23:04 10° N 20:28:01 39° ENE 20:32:04 15° SE
Cosmos 2278 4.2 20:22:54 10° SSW 20:28:33 67° WNW 20:34:15 10° NNE
Cosmos 1455 Rocket 3.7 20:25:19 10° SSW 20:29:36 59° W 20:33:55 10° N
Cosmos 2084 3.4 20:25:42 10° NNW 20:29:44 68° NE 20:33:09 15° SE
Cosmos 1602 Rocket 3.5 20:30:01 10° N 20:34:30 81° E 20:38:55 10° S
Cosmos 220 Rocket 4.0 20:34:26 10° NNW 20:38:39 78° WSW 20:42:51 10° SSE
H-2A R/B 3.2 20:37:09 10° S 20:41:01 65° W 20:44:57 10° NNW
Lacrosse 5 2.0 20:36:25 10° NW 20:41:28 65° NE 20:44:53 20° ESE
Cosmos 1980 Rocket 2.7 20:36:59 10° S 20:42:06 36° ESE 20:47:16 10° NE
Cosmos 2369 4.4 20:37:32 10° SW 20:43:07 58° WNW 20:48:45 10° NNE
EO 1 Delta rocket 4.4 20:43:25 10° N 20:48:07 69° WNW 20:53:33 10° SSW
Cosmos 1975 3.2 20:45:40 10° SSW 20:49:45 70° W 20:53:52 10° N
SPOT 5 3.9 20:49:22 21° ESE 20:51:25 29° ENE 20:55:30 10° N
Cosmos 1459 Rocket 4.1 20:45:44 10° SSE 20:51:33 52° E 20:57:27 10° NNE
ERS-1 Rocket 3.0 20:48:21 16° SSE 20:52:18 61° ENE 20:57:16 10° N
Cosmos 2150 Rocket 3.9 20:47:12 10° NNW 20:52:23 83° ENE 20:56:29 16° SSE
Lacrosse 5 rocket 2.8 20:52:15 10° WNW 20:55:23 26° SW 20:57:58 13° S
BREEZE-M TANK 3.3 20:43:32 10° WNW 20:55:53 89° N 20:58:04 27° ESE
Cosmos 1666 4.3 21:00:57 19° ENE 21:00:57 19° ENE 21:02:53 10° NE
Cosmos 1656 4.0 20:56:36 10° SSW 21:02:12 70° WNW 21:07:46 10° NNE
Cosmos 2058 Rocket 4.1 21:03:45 27° E 21:03:51 27° E 21:07:40 10° NNE
Cosmos 1763 Rocket 3.7 20:59:49 10° S 21:04:39 45° ESE 21:09:28 10° NNE
SJ-11-01 4.2 21:01:23 17° SSE 21:04:59 88° E 21:09:42 10° NNW
Cosmos 2263 Rocket 3.9 21:03:48 10° N 21:07:20 17° NE 21:09:09 15° ENE
Cosmos 1606 Rocket 3.8 21:06:33 30° SE 21:08:15 47° E 21:12:30 10° NNE
Cosmos 1898 Rocket 3.8 21:03:11 10° NNW 21:08:27 68° WSW 21:12:34 17° S
CZ-4 DEB 2.9 21:07:23 32° S 21:08:41 71° WSW 21:11:50 10° NNW
DELTA 2 R/B (1) 4.3 21:05:37 10° W 21:10:46 39° SSW 21:13:06 27° SSE
Cosmos 1500 3.7 21:07:12 10° SSW 21:10:53 58° W 21:14:39 10° N
Cosmos 2227 Rocket 4.0 21:06:28 10° NW 21:11:13 28° WSW 21:15:57 10° SSW
Cosmos 1125 Rocket 4.4 21:09:56 10° N 21:14:32 30° ENE 21:15:42 28° E
Cosmos 2322 Rocket 3.3 21:16:55 24° E 21:16:55 24° E 21:20:15 10° NE
Terra 4.0 21:15:54 11° ENE 21:15:56 11° ENE 21:17:15 10° NE
YAOGAN 6 3.6 21:16:13 31° ENE 21:16:13 31° ENE 21:19:18 10° N
Cosmos 1340 2.5 21:15:57 10° N 21:19:45 70° E 21:20:21 57° SE
OAO 2 Rocket 4.0 21:17:25 10° WSW 21:22:01 36° S 21:22:50 34° SSE
Cosmos 468 Rocket 4.5 21:17:10 10° SSW 21:22:12 60° WNW 21:27:18 10° NNE
USA 215 4.4 21:18:44 16° ENE 21:23:10 34° NNE 21:28:53 10° NW
Meteor 1-21 4.2 21:20:21 10° N 21:26:10 79° E 21:29:03 32° SSE
Cosmos 2297 Rocket 3.9 21:21:30 10° NW 21:26:20 30° WSW 21:31:08 10° SSW
Cosmos 1939 Rocket 3.1 21:25:01 32° S 21:26:50 69° W 21:31:00 10° NNW
Cosmos 841 Rocket 3.4 21:23:26 13° S 21:28:03 66° ESE 21:33:14 10° NNE
Meteor 2-9 Rocket 4.3 21:26:58 40° SE 21:28:16 48° E 21:33:27 10° NNE
SL-08 R/B 4.4 21:25:28 26° SSE 21:29:04 62° E 21:35:09 10° NNE
Cosmos 2360 4.1 21:24:08 10° S 21:29:46 64° ESE 21:35:26 10° NNE
Cosmos 1802 Rocket 4.0 21:23:25 10° S 21:29:49 89° ESE 21:36:19 10° N
Cosmos 1726 Rocket 3.4 21:30:19 52° SSE 21:31:16 72° E 21:35:40 10° NNE
MetOp-A 4.1 21:33:48 45° SE 21:35:23 69° ENE 21:40:43 10° N
Cosmos 2227 4.1 21:29:45 10° NNW 21:35:32 84° ENE 21:37:26 44° SSE
Cosmos 2016 Rocket 3.9 21:35:00 16° S 21:39:57 89° E 21:46:12 10° N
ASTEX 1 3.3 21:39:24 10° N 21:44:25 81° E 21:45:35 53° S
Cosmos 1825 Rocket 4.2 21:40:58 10° NNW 21:45:16 51° W 21:46:50 33° SSW
Cosmos 1743 4.2 21:48:12 16° SW 21:50:51 36° WNW 21:54:31 10° N
Tiangong 1 3.4 21:49:33 10° W 21:50:47 20° W 21:50:47 20° W
BREEZE-M DEB (TANK) 2.6 21:51:29 10° WNW 21:53:28 59° WNW 21:53:28 59° WNW
RESURS DK-1 3.9 21:51:05 10° NW 21:54:38 28° WSW 21:55:34 25° SW
Cosmos 1953 Rocket 4.2 21:51:54 10° NNW 21:56:16 54° W 21:57:08 46° SW
H-2A R/B 2.6 21:57:54 46° WSW 21:58:19 48° W 22:02:21 10° NNW
Cosmos 1697 Rocket 4.4 21:57:33 10° WSW 22:02:35 32° NW 22:07:39 10° N
USA 245 4.4 22:02:14 57° SSE 22:03:42 87° ENE 22:10:03 10° NNW
SL-08 RB Rocket 4.1 22:05:54 55° NNE 22:05:54 55° NNE 22:09:47 10° N
Envisat 4.3 22:03:39 23° SW 22:06:03 35° W 22:10:42 10° NNW
Cosmos 2228 3.7 22:07:21 48° N 22:07:21 48° N 22:10:29 10° N
Cosmos 1864 Rocket 4.4 22:06:14 45° SSW 22:08:18 84° W 22:14:27 10° N
SL-16 R/B 2.2 22:13:10 67° ENE 22:13:10 67° ENE 22:18:13 10° NNE
NOAA 11 4.0 22:13:22 82° SSE 22:13:38 90° W 22:19:09 10° NNW
ARGOS 3.0 22:16:23 85° SSW 22:16:30 86° WSW 22:21:55 10° NNW
Tsikada Rocket 4.1 22:11:22 10° NNW 22:17:47 73° W 22:19:18 53° SSW
SL-19 R/B 4.1 22:15:53 10° NNE 22:21:21 77° WNW 22:21:42 73° WSW
CZ-4B R/B 4.0 22:16:35 10° NNE 22:20:03 49° NNE 22:20:03 49° NNE
Cosmos 2346 Rocket 4.4 22:17:15 10° N 22:23:18 68° ENE 22:23:18 68° ENE
Lacrosse 5 3.6 22:20:11 10° WNW 22:24:01 22° WSW 22:24:05 22° WSW
Cosmos 1980 Rocket 3.7 22:20:58 10° WSW 22:26:06 34° WNW 22:31:17 10° N
H-2A R/B 2.6 22:27:30 47° NNE 22:27:30 47° NNE 22:31:12 10° N
Cosmos 2360 Rocket 4.1 22:30:08 18° NE 22:30:08 18° NE 22:31:36 10° NE
SPOT 5 4.2 22:28:37 31° WSW 22:29:22 33° W 22:33:43 10° NNW
Meteor 2-17 Rocket 4.4 22:36:21 74° WSW 22:36:38 76° W 22:42:43 10° N
BREEZE-M DEB (TANK) 4.0 22:26:10 10° SW 22:37:37 84° SSW 22:37:37 84° SSW
SPOT 1/Viking Rocket 4.5 22:45:54 42° W 22:45:54 42° W 22:50:39 10° NNW
Cosmos 2263 Rocket 2.6 22:46:24 10° NNW 22:50:51 58° NNW 22:50:51 58° NNW
Terra 3.1 22:54:47 38° NNW 22:54:47 38° NNW 22:57:42 10° NNW
Meteor 2-5 Rocket 4.1 22:50:36 10° NNW 22:55:39 64° NW 22:55:39 64° NW
Cosmos 2322 Rocket 3.1 22:58:39 42° W 22:59:26 45° WNW 23:04:49 10° NNE
USA 215 3.2 23:06:05 77° NNW 23:06:05 77° NNW 23:12:13 10° NW
Meteor 1-24 Rocket 4.4 23:05:33 10° N 23:10:08 54° N 23:10:08 54° N
ATLAS CENTAUR R/B 4.2 23:29:28 69° ESE 23:29:28 69° ESE 23:50:59 10° NE
Cosmos 2278 Rocket 4.0 23:37:03 10° N 23:40:20 25° NNE 23:40:20 25° NNE
